EHI
0 1 2 3 3 3 3 1 1 1 1 1 0 0 0 0 0 0 0 0 0 0 0 1 2 1 0 0 0 0 0 0 0 0 0 0 0 0 0 0 0 0 0
0 1 2 3 3 3 3 2 2 2 2 2 1 1 0 0 0 0 0 0 0 0 0 1 2 1 0 0 0 0 0 0 0 0 0 0 0 0 0 0 0 0 0
0 0 2 3 3 3 3 3 2 3 3 3 3 2 1 0 0 0 0 0 0 0 0 1 1 0 0 0 0 0 0 0 0 0 0 0 0 0 0 0 0 0 0
0 1 2 3 3 3 3 3 2 2 3 3 3 3 2 1 0 0 0 0 0 0 0 0 0 0 0 0 0 0 0 0 0 0 0 0 0 0 0 0 0 0 0
0 1 2 3 3 3 3 2 1 1 2 3 3 3 2 1 0 0 0 0 0 0 0 0 0 0 0 0 0 0 0 0 0 0 0 0 0 0 0 0 0 0 0
0 1 2 3 3 3 3 2 1 0 1 3 3 3 2 1 0 0 0 0 1 1 0 0 0 0 0 0 0 0 0 0 0 0 0 0 0 0 0 0 0 0 0
0 0 1 3 3 3 3 2 1 0 1 2 3 3 2 1 1 1 1 0 1 1 0 0 0 0 0 0 0 0 0 0 0 0 0 0 0 0 0 0 0 0 0
0 0 1 2 3 3 3 2 1 0 1 2 3 3 2 1 1 1 1 0 1 1 0 0 0 0 0 0 0 0 0 0 0 0 0 0 0 0 0 0 0 0 0
0 0 1 1 1 2 3 2 1 1 1 2 3 3 2 1 0 0 0 0 0 0 0 1 0 0 0 0 0 0 0 0 0 0 0 0 0 0 0 0 0 0 0
0 0 0 0 1 2 3 2 1 1 1 1 2 2 2 1 0 0 0 0 1 0 0 0 0 0 0 0 0 0 0 0 0 0 0 0 0 0 0 0 0 0 0
0 0 0 0 0 1 1 1 1 1 0 0 1 1 1 1 0 0 0 0 0 0 0 0 0 0 0 0 0 0 0 0 0 0 0 0 0 0 0 0 0 0 0
0 0 0 0 0 1 1 2 1 1 0 0 0 0 0 0 0 0 0 0 0 0 0 0 0 0 0 0 0 0 0 0 0 0 0 0 0 0 0 0 0 0 0
0 0 0 0 1 2 4 4 4 2 1 0 0 0 0 0 0 0 0 0 0 0 0 0 0 0 0 0 0 0 0 0 0 0 0 0 0 0 0 0 0 0 0
0 0 0 0 1 3 5 4 4 3 2 1 0 0 1 0 0 0 0 0 0 0 0 0 1 0 0 0 0 0 0 0 0 0 0 0 0 0 0 0 0 0 0
0 0 0 0 1 3 4 3 3 3 3 2 1 0 0 0 0 0 0 0 0 0 0 0 0 0 0 0 0 0 0 0 0 0 0 0 0 0 0 0 0 0 0
0 0 0 0 1 2 2 3 3 3 3 3 1 0 0 0 0 0 0 0 0 0 0 0 0 0 0 0 0 0 0 0 0 0 0 0 0 0 0 0 0 0 0
0 0 0 0 0 1 1 1 2 3 3 3 2 0 0 0 0 0 0 0 0 0 0 0 0 0 0 0 0 0 0 0 0 0 0 0 0 0 0 0 0 0 0
0 0 0 0 0 0 0 0 1 1 2 2 1 0 0 0 0 0 0 0 0 0 0 0 0 0 0 0 0 0 0 0 0 0 0 0 0 0 0 0 0 0 0
0 0 0 0 0 0 0 0 0 0 1 1 0 0 0 0 0 0 0 0 0 0 0 0 0 0 0 0 0 0 0 0 0 0 0 0 0 0 0 0 0 0 0
0 0 0 0 0 0 0 0 0 0 0 0 0 0 0 0 0 0 0 0 0 0 0 0 0 0 0 0 0 0 0 0 0 0 0 0 0 0 0 0 0 0 0
0 0 0 0 0 0 0 0 0 0 0 0 0 0 0 0 0 0 0 0 0 0 0 0 0 0 0 0 0 0 0 0 0 0 0 0 0 0 0 0 0 0 0
0 0 0 0 0 0 0 0 0 0 0 0 0 0 0 0 0 0 0 0 0 0 0 0 0 0 0 0 0 0 0 0 0 0 0 0 0 0 0 0 0 0 0
0 0 0 0 0 0 0 0 0 0 0 0 0 0 0 0 0 0 0 0 0 0 0 0 0 0 0 0 0 0 0 0 0 0 0 0 0 0 0 0 0 0 0
0 0 0 0 0 0 0 0 0 0 0 0 0 0 0 0 0 0 0 0 0 0 0 0 0 0 0 0 0 0 0 0 0 0 0 0 0 0 0 0 0 0 0
0 0 0 0 0 0 0 0 0 0 0 0 0 0 0 0 0 0 0 0 0 0 0 0 0 0 0 0 0 0 0 0 0 0 0 0 0 0 0 0 0 0 0
0 0 0 0 0 0 0 0 0 0 0 0 0 0 0 0 0 0 0 0 0 0 0 0 0 0 0 0 0 0 0 0 0 0 0 0 0 0 0 0 0 0 0
Wind_Speed
2 1 3 4 6 7 9 9 10 10 10 10 10 11 11 11 11 11 11 12 12 12 13 14 14 14 14 15 15 15 14 15 14 14 14 13 14 14 13 12 11 12 15
1 1 3 5 7 8 9 9 9 10 10 10 10 11 11 11 11 11 12 12 12 12 13 13 14 14 14 14 14 14 14 13 13 12 10 11 12 13 13 13 12 11 14
3 2 3 6 7 8 9 9 9 9 10 10 10 10 11 11 11 11 12 12 12 12 13 13 13 13 13 13 13 13 13 12 11 9 7 9 11 13 13 13 13 13 13
3 2 4 6 7 8 9 9 9 9 9 10 10 10 10 11 11 11 11 12 12 12 12 12 12 12 12 12 12 12 12 11 9 5 6 8 9 12 12 12 12 12 12
4 3 5 6 7 8 9 9 9 9 9 9 10 10 10 10 10 11 11 11 12 12 12 12 12 12 11 11 11 11 11 10 7 6 8 8 8 10 11 11 11 11 12
4 4 5 6 7 8 8 9 9 9 9 9 9 9 10 10 10 10 10 11 11 11 11 11 11 11 11 11 11 11 10 7 4 7 7 7 8 10 10 10 10 10 11
4 4 4 6 7 7 8 8 8 8 9 9 9 9 9 9 9 9 10 10 10 10 10 10 10 10 10 10 10 10 9 6 6 6 6 7 8 9 9 9 9 10 10
4 4 4 6 6 7 8 8 8 8 9 9 8 8 9 9 10 10 9 9 9 9 9 9 9 9 9 9 9 9 8 5 5 6 6 6 8 8 9 9 9 9 9
4 4 4 4 5 6 8 8 9 9 9 9 9 8 8 8 9 9 9 9 9 9 9 9 9 8 8 9 9 8 7 5 4 4 5 5 7 7 8 8 8 8 8
5 4 4 4 4 4 5 8 9 9 9 10 10 10 8 8 8 8 8 8 8 8 9 9 8 8 8 8 8 8 6 2 5 4 3 5 6 6 6 7 7 7 7
4 4 3 3 3 3 4 6 7 7 8 7 7 8 6 4 5 5 8 8 8 8 8 8 8 8 7 7 8 6 3 2 4 3 3 6 5 5 6 6 6 6 6
2 3 3 3 3 3 3 3 3 3 4 4 4 4 3 3 3 4 7 8 8 7 7 7 7 6 4 3 4 3 2 3 3 3 4 6 5 5 5 5 6 6 6
2 2 3 3 3 3 2 2 2 2 2 3 4 4 3 3 3 3 2 3 4 4 3 4 3 2 2 2 2 2 2 2 2 2 4 7 5 5 5 5 5 5 5
2 2 2 2 3 3 2 2 2 2 2 2 3 3 3 2 2 2 2 2 1 1 2 1 1 2 2 3 2 2 2 1 1 1 3 7 6 5 5 4 4 4 4
2 2 2 2 3 2 2 2 2 2 2 2 2 3 3 2 2 2 1 1 1 1 1 1 1 2 2 2 2 2 2 2 2 1 2 6 6 5 5 5 5 4 4
1 1 2 2 2 2 2 2 2 2 2 2 2 3 3 2 2 1 1 1 2 1 1 0 1 1 1 1 1 1 1 1 1 1 1 2 5 6 5 5 5 5 3
1 1 2 1 2 3 3 2 2 2 2 2 2 3 3 2 2 1 1 1 1 1 1 0 0 1 0 0 0 0 0 0 1 1 1 1 1 3 5 5 5 5 5
1 2 2 2 2 3 2 2 2 2 2 2 2 2 2 2 2 1 1 1 1 1 1 0 0 1 1 1 1 1 1 0 1 0 0 1 1 1 2 5 5 5 6
2 2 2 2 2 2 3 2 2 2 2 2 2 2 2 2 1 1 1 1 1 0 0 1 1 1 1 1 1 1 1 1 1 1 1 1 1 2 2 2 4 5 5
2 2 3 2 2 2 2 2 2 2 2 2 2 2 2 2 1 1 0 1 0 0 0 0 1 1 1 1 2 2 2 1 1 1 1 1 1 1 2 2 2 2 4
2 3 3 2 2 2 1 1 1 1 1 2 2 3 3 3 3 1 1 1 1 1 0 1 1 1 1 1 2 2 2 2 2 2 2 2 1 1 1 2 2 2 2
4 3 3 2 2 2 1 1 0 1 1 1 2 3 3 2 2 2 1 1 1 1 1 1 1 1 1 1 2 2 2 3 2 2 2 2 2 2 2 2 3 3 3
3 3 3 2 2 2 2 2 1 1 1 1 1 2 3 3 2 2 2 1 1 1 1 1 1 2 2 1 1 2 2 3 2 2 3 3 2 2 2 3 3 3 3
3 2 2 2 2 2 2 2 2 1 1 0 0 1 1 2 3 3 3 2 1 1 2 2 2 2 2 2 1 2 3 2 3 2 2 3 3 3 3 3 3 4 4
2 2 2 2 2 2 2 2 2 2 1 1 0 0 1 1 2 2 2 2 2 2 2 2 2 2 2 2 2 2 2 2 4 3 4 3 3 3 3 4 3 3 4
1 1 1 2 2 2 2 2 2 2 2 1 1 1 1 1 1 2 2 2 2 2 2 2 3 3 2 3 2 2 2 2 3 3 5 5 4 3 3 3 4 3 3
Wind_Direction
106 34 354 69 84 87 87 91 92 92 89 87 88 89 88 86 85 84 84 83 81 82 83 82 79 76 75 77 77 74 72 72 72 71 70 67 67 69 69 64 67 75 72
115 94 33 77 88 89 89 88 90 92 91 88 88 88 87 86 83 82 82 84 83 81 82 82 80 78 77 77 78 77 75 75 73 72 73 75 68 66 65 58 56 71 73
106 99 88 75 86 89 90 90 89 92 94 91 89 88 86 85 84 82 81 82 82 81 81 80 80 79 80 79 79 78 76 74 72 69 79 81 77 70 66 65 69 72 73
103 98 93 78 87 91 92 91 89 95 96 93 91 90 87 85 84 82 80 81 81 81 81 79 80 79 80 80 81 80 76 71 63 60 77 77 79 73 69 68 70 70 72
99 85 84 78 87 92 92 90 89 90 95 95 92 89 88 86 85 83 81 81 81 80 80 81 80 80 80 78 78 78 76 68 54 66 74 74 76 73 70 69 70 70 71
95 82 83 76 81 86 89 89 87 88 89 92 92 89 88 87 87 86 83 83 83 81 81 82 81 80 80 78 76 77 75 65 68 74 73 72 72 70 70 70 69 70 73
96 80 82 78 80 81 81 85 86 88 87 88 90 90 89 89 88 88 87 85 84 84 83 83 82 81 79 78 76 76 70 49 67 75 74 73 69 67 70 71 70 70 71
89 81 79 69 74 77 79 79 80 85 87 84 86 87 89 88 87 85 86 86 86 85 83 83 83 82 79 77 75 73 64 47 72 74 72 71 63 66 69 68 68 69 69
85 81 76 79 81 80 77 76 75 75 79 80 79 81 81 83 85 85 82 83 85 85 83 79 80 79 77 75 71 67 58 36 68 70 68 66 57 63 67 67 66 66 67
76 68 67 78 79 89 92 77 73 72 72 74 72 70 72 79 81 81 83 79 79 81 82 79 79 81 78 73 67 58 52 46 71 69 66 64 58 62 67 67 65 64 66
64 56 58 66 72 76 89 84 82 76 71 74 75 69 73 91 95 89 76 72 76 77 80 81 81 82 80 76 64 53 45 58 65 57 58 52 56 60 66 68 65 66 65
68 48 53 62 62 69 85 95 94 90 86 83 86 83 79 80 77 83 77 70 71 72 74 75 77 85 84 94 77 57 64 59 55 53 50 39 50 56 61 66 67 66 64
111 61 44 57 64 67 72 81 87 88 84 80 77 73 78 78 75 76 85 80 79 77 78 84 92 90 88 87 93 85 74 67 54 48 42 27 37 47 55 65 64 63 62
114 80 50 72 74 65 70 79 84 84 79 75 77 74 73 72 66 65 64 65 63 65 81 87 88 89 91 96 96 91 83 77 59 50 43 23 27 37 47 61 60 62 63
119 86 56 63 86 80 75 68 64 71 77 78 70 68 66 74 69 60 62 58 54 48 66 78 88 95 92 87 84 85 78 66 61 47 55 32 24 31 40 49 48 59 67
115 111 87 57 81 83 84 81 69 67 78 83 75 60 64 67 69 61 57 51 45 30 18 38 100 121 106 97 86 73 69 61 49 47 34 48 32 27 29 33 33 32 29
127 99 89 51 85 91 88 85 75 67 74 72 68 63 55 58 68 62 55 50 36 16 5 1 113 157 133 148 138 33 14 23 41 45 20 358 22 39 30 24 23 22 17
143 129 101 62 76 82 83 83 78 70 69 59 61 67 59 51 50 65 55 38 16 358 353 350 279 231 210 230 242 248 255 268 271 337 347 343 343 355 31 23 13 13 7
160 139 111 76 78 88 83 80 76 66 57 54 53 47 46 51 37 51 40 22 12 10 5 339 315 287 257 257 260 257 251 239 249 251 265 307 349 350 352 24 16 8 2
157 137 116 94 86 92 98 91 83 73 54 44 43 35 28 26 23 22 44 20 329 266 20 313 300 307 282 278 267 259 251 244 241 239 260 271 282 323 333 333 331 342 354
156 143 128 116 111 104 110 106 81 55 45 41 33 35 28 18 15 5 11 2 310 247 248 269 261 263 297 293 267 259 233 225 236 237 249 254 256 277 291 303 306 302 308
161 157 147 139 137 124 109 110 82 72 47 38 31 28 14 14 15 356 355 340 305 282 254 237 234 245 282 279 269 269 251 215 212 231 241 243 250 255 265 278 288 293 296
165 172 161 153 156 135 115 102 103 95 70 47 19 16 6 4 4 355 347 325 315 288 273 276 256 241 241 241 261 263 262 252 272 218 235 238 241 249 259 262 268 277 283
171 169 164 155 159 148 137 139 147 163 170 185 326 334 347 6 11 1 355 334 312 294 277 268 267 264 253 242 245 263 280 294 268 258 229 236 248 252 257 264 262 264 270
173 163 167 167 165 162 164 172 180 184 186 166 170 279 338 360 6 358 352 346 332 305 293 284 266 255 253 258 251 260 258 263 258 260 264 259 253 250 258 259 261 260 262
166 157 171 182 181 178 185 188 193 199 198 186 196 232 294 320 342 350 344 332 327 318 305 292 271 255 250 249 248 247 255 253 254 257 263 268 265 261 258 256 257 257 256